Flag for Brazil Weather past 2 weeks in Recife, Pernambuco, Brazil

Now
75 °F

Passing clouds.


Feels Like: 77 °F
Forecast: 74 / 81 °F
Wind: 14 mph from Southeast

Location: Recife Aeroporto

Current Time: Aug 22, 2014 at 11:05:18 PM

Latest Report: Aug 22, 2014 at 10:00 PM


Visibility: N/A

Pressure: 30.04 "Hg

Humidity: 74%

Dew point: 66 °F

Location of RecifeLocation

Historic Weather in Recife — Graph

°F

Recife temperature yesterday

Maximum temperature yesterday: 77 °F (at 2:00 AM)
Minimum temperature yesterday: 70 °F (at 3:00 AM)
Average temperature yesterday: 72 °F

Past Weeks' High & Low Weather Summary

 TemperatureHumidityPressure
High82 °F (Aug 8, 12:00 PM)100% (Aug 9, 7:00 AM)30.09 "Hg (Aug 9, 7:00 AM)
Low68 °F (Aug 19, 6:00 AM)24% (Aug 12, 9:00 AM)29.95 "Hg (Aug 13, 3:00 PM)
Average76 °F82%30.03 "Hg
* Reported Aug 7 10:00 PM — Aug 22 10:00 PM, Recife, Weather by CustomWeather, © 2014

Note: Actual official high and low records may vary slightly from our data, if they occured in-between our weather recording intervals... More about our weather records

Advertising

Recife weather history for previous 24 hours

 ConditionsComfort  
Time TempWeatherWind HumidityBarometerVisibility
10:00 PM
Aug 22
75 °FPassing clouds.14 mph74%30.04 "HgN/A
9:00 PM75 °FPassing clouds.14 mph74%30.04 "HgN/A
8:00 PM75 °FPassing clouds.16 mph78%30.04 "HgN/A
7:00 PM77 °FPassing clouds.16 mph69%30.01 "HgN/A
6:00 PM77 °FPassing clouds.17 mph74%30.01 "HgN/A
5:00 PM77 °FScattered clouds.18 mph79%29.98 "HgN/A
4:00 PM79 °FPassing clouds.20 mph74%29.98 "HgN/A
3:00 PM79 °FScattered clouds.17 mph74%29.98 "HgN/A
2:00 PM79 °FScattered clouds.21 mph74%29.98 "HgN/A
1:00 PM82 °FScattered clouds.20 mph66%30.01 "HgN/A
12:00 PM81 °FPassing clouds.17 mph70%30.04 "HgN/A
11:00 AM81 °FScattered clouds.20 mph70%30.07 "HgN/A
10:00 AM81 °FPassing clouds.17 mph66%30.07 "HgN/A
9:00 AM79 °FScattered clouds.18 mph74%30.07 "HgN/A
8:00 AM75 °FPassing clouds.10 mph83%30.07 "HgN/A
7:00 AM72 °FPassing clouds.10 mph88%30.04 "HgN/A
6:00 AM70 °FPassing clouds.8 mph94%30.01 "HgN/A
5:00 AM70 °FPassing clouds.9 mph94%30.01 "HgN/A
4:00 AM70 °FPassing clouds.8 mph94%30.01 "HgN/A
3:00 AM70 °FClear.7 mph94%30.01 "HgN/A
2:00 AM70 °FClear.6 mph94%30.01 "Hg10 mi
1:00 AM70 °FPassing clouds.5 mph100%30.01 "HgN/A
12:00 AM70 °FLight rain. Overcast.8 mph94%30.04 "Hg3 mi
11:00 PM
Aug 21
70 °FMostly cloudy.9 mph100%30.07 "HgN/A
Weather by CustomWeather, © 2014

See weather overviewHow to use our weather pages